World > North America > United States > Vermont
Hourly Weather in Essex Junction, VermontEssex Junction, Vermont Hourly Weather

Essex Junction, VT Hourly Weather

Hourly Weather Essex Junction, VermontHourly Weather in Essex Junction, VT
Lat: 44.49N, Lon: 73.11W  ICAO: KBTV
Web Search

Helpful Tip: Type the letters wx in the search engine next time you need to find us.

Feedback

Essex Junction Hourly Weather

36 Hour Weather Scroll   °F Click to change Essex Junction hourly weather to Imperial units.Click to change Essex Junction hourly weather to Metric units. °C
Currently, Mostly Clear, temperature is 24°F-4°C, dew point 16.0°F-9°C, humidity 70%. Wind direction is N at 8 mph13 km/h with visibility of 10 mile(s) mi16 km. Barometric pressure is 29.97 in1015 mb.

Nov 29
10:00 AM

Nov 29
11:00 AM

Nov 29
NOON

Nov 29
1:00 PM

Nov 29
2:00 PM

Nov 29
3:00 PM

Nov 29
4:00 PM

Nov 29
5:00 PM

Nov 29
6:00 PM

Nov 29
7:00 PM

Nov 29
8:00 PM

Nov 29
9:00 PM

Nov 29
10:00 PM

Nov 29
11:00 PM

Nov 30
MIDNIGHT

Nov 30
1:00 AM

Nov 30
2:00 AM

Nov 30
3:00 AM

Nov 30
4:00 AM

Nov 30
5:00 AM

Nov 30
6:00 AM

Nov 30
7:00 AM

Nov 30
8:00 AM

Nov 30
9:00 AM

Nov 30
10:00 AM

Nov 30
11:00 AM

Nov 30
NOON

Nov 30
1:00 PM

Nov 30
2:00 PM

Nov 30
3:00 PM

Nov 30
4:00 PM

Nov 30
5:00 PM

Nov 30
6:00 PM

Nov 30
7:00 PM

Nov 30
8:00 PM

Nov 30
9:00 PM
Mostly Cloudy Mostly Cloudy Mostly Cloudy Mostly Cloudy Mostly Cloudy Mostly Cloudy Mostly Cloudy Mostly Cloudy Mostly Cloudy Mostly Cloudy Mostly Cloudy Cloudy Cloudy Cloudy Cloudy Cloudy Cloudy Cloudy Cloudy Cloudy Cloudy Cloudy Cloudy Cloudy Cloudy Cloudy Cloudy Cloudy Cloudy Cloudy Cloudy Cloudy Cloudy Cloudy Cloudy Cloudy
Mostly Cloudy Mostly Cloudy Mostly Cloudy Mostly Cloudy Mostly Cloudy Mostly Cloudy Mostly Cloudy Mostly Cloudy Mostly Cloudy Mostly Cloudy Mostly Cloudy Cloudy Cloudy Cloudy Cloudy Cloudy Cloudy Cloudy Cloudy Cloudy Cloudy Cloudy Cloudy Cloudy Cloudy Cloudy Cloudy Cloudy Cloudy Cloudy Cloudy Cloudy Cloudy Cloudy Cloudy Cloudy
28°F-2°C 29°F-2°C 31°F-1°C 32°F0°C 32°F0°C 31°F-1°C 31°F-1°C 29°F-2°C 28°F-2°C 26°F-3°C 25°F-4°C 24°F-4°C 23°F-5°C 22°F-6°C 21°F-6°C 20°F-7°C 19°F-7°C 19°F-7°C 18°F-8°C 18°F-8°C 19°F-7°C 19°F-7°C 22°F-6°C 24°F-4°C 27°F-3°C 28°F-2°C 30°F-1°C 31°F-1°C 31°F-1°C 31°F-1°C 31°F-1°C 31°F-1°C 31°F-1°C 31°F-1°C 31°F-1°C 32°F0°C
- - - - - - - - - - - - - - - - - - - - - - - - - - - - - - - - - - Snow Snow
2% 2% 2% 2% 1% 1% 1% 1% 1% 1% 8% 8% 8% 8% 8% 8% 2% 2% 2% 2% 2% 2% 1% 1% 1% 1% 1% 1% 18% 18% 18% 18% 18% 18% 42% 42%
17°F-8°C 17°F-8°C 16°F-9°C 16°F-9°C 16°F-9°C 15°F-9°C 15°F-9°C 15°F-9°C 16°F-9°C 16°F-9°C 15°F-9°C 15°F-9°C 14°F-10°C 14°F-10°C 13°F-11°C 13°F-11°C 13°F-11°C 13°F-11°C 13°F-11°C 13°F-11°C 13°F-11°C 13°F-11°C 14°F-10°C 15°F-9°C 16°F-9°C 17°F-8°C 18°F-8°C 19°F-7°C 20°F-7°C 20°F-7°C 21°F-6°C 22°F-6°C 22°F-6°C 23°F-5°C 23°F-5°C 22°F-6°C
63% 60% 53% 51% 51% 51% 51% 55% 60% 65% 65% 68% 68% 71% 71% 74% 77% 77% 80% 80% 77% 77% 71% 68% 63% 63% 60% 61% 63% 63% 66% 69% 69% 72% 72% 66%
NNW NNW NNW NNW NNW NNW NNW NNW N N W S E E SE SE SE SSE SSE SSE SSE S S S S S S SSE SSE S S S S S S S
3 mph 3 mph 5 mph 5 mph 5 mph 4 mph 4 mph 4 mph 3 mph 3 mph 3 mph 1 mph 1 mph 1 mph 2 mph 2 mph 2 mph 2 mph 2 mph 2 mph 3 mph 3 mph 3 mph 5 mph 5 mph 5 mph 6 mph 6 mph 6 mph 5 mph 5 mph 5 mph 6 mph 6 mph 6 mph 9 mph
10 mi16 km 10 mi16 km 10 mi16 km 10 mi16 km 10 mi16 km 10 mi16 km 10 mi16 km 10 mi16 km 10 mi16 km 10 mi16 km 10 mi16 km 10 mi16 km 10 mi16 km 10 mi16 km 10 mi16 km 10 mi16 km 10 mi16 km 10 mi16 km 10 mi16 km 10 mi16 km 10 mi16 km 10 mi16 km 10 mi16 km 10 mi16 km 10 mi16 km 10 mi16 km 10 mi16 km 10 mi16 km 10 mi16 km 10 mi16 km 10 mi16 km 10 mi16 km 10 mi16 km 10 mi16 km 10 mi16 km 6 mi10 km
Hour (EST)
Weather
Clouds
Temperature
Precip. Type
POP
Dewpoint
Humidity
Wind Direction
Wind Speed
Visibility
POP = Probability of Precipitation. ** Indicates missing data/values from model statistics.

24 Hour Forecast

Rest of Today - Partly sunny. Highs in the upper 20s. North winds 10 to 15 mph.
Tonight - Partly cloudy. Lows around 19, except in the mid 20s along lake champlain. North winds around 10 mph until midnight, becoming light and variable.

48 Hour Forecast API Feed


Mon, Nov 29
10:00 am

Mon, Nov 29
11:00 am

Mon, Nov 29
Noon

Mon, Nov 29
1:00 pm

Mon, Nov 29
2:00 pm

Mon, Nov 29
3:00 pm

Mon, Nov 29
4:00 pm

Mon, Nov 29
5:00 pm

Mon, Nov 29
6:00 pm

Mon, Nov 29
7:00 pm

Mon, Nov 29
8:00 pm

Mon, Nov 29
9:00 pm

Mon, Nov 29
10:00 pm

Mon, Nov 29
11:00 pm

Tue, Nov 30
Midnight

Tue, Nov 30
1:00 am

Tue, Nov 30
2:00 am

Tue, Nov 30
3:00 am

Tue, Nov 30
4:00 am

Tue, Nov 30
5:00 am

Tue, Nov 30
6:00 am

Tue, Nov 30
7:00 am

Tue, Nov 30
8:00 am

Tue, Nov 30
9:00 am

Tue, Nov 30
10:00 am

Tue, Nov 30
11:00 am

Tue, Nov 30
Noon

Tue, Nov 30
1:00 pm

Tue, Nov 30
2:00 pm

Tue, Nov 30
3:00 pm

Tue, Nov 30
4:00 pm

Tue, Nov 30
5:00 pm

Tue, Nov 30
6:00 pm

Tue, Nov 30
7:00 pm

Tue, Nov 30
8:00 pm

Tue, Nov 30
9:00 pm

Tue, Nov 30
10:00 pm

Tue, Nov 30
11:00 pm

Wed, Dec 1
Midnight

Wed, Dec 1
1:00 am

Wed, Dec 1
2:00 am

Wed, Dec 1
3:00 am

Wed, Dec 1
4:00 am

Wed, Dec 1
5:00 am

Wed, Dec 1
6:00 am

Wed, Dec 1
7:00 am

Wed, Dec 1
8:00 am

Wed, Dec 1
9:00 am
CloudyPartly CloudyCloudyCloudyCloudyPartly CloudyPartly CloudyPartly CloudyPartly CloudyClearPartly CloudyClearPartly CloudyPartly CloudyPartly CloudyCloudyCloudyCloudyCloudyCloudyPartly CloudyOvercastOvercastOvercastOvercastOvercastOvercastOvercastOvercastCloudyOvercastOvercastCloudyCloudyCloudyCloudyCloudyOvercastOvercastPartly CloudyOvercastLight SnowModerate SnowHeavy SnowModerate Or Heavy Snow ShowersModerate Or Heavy Snow ShowersPatchy Heavy SnowPatchy Light Snow
Cloudy Partly cloudy Cloudy Cloudy Cloudy Partly cloudy Partly cloudy Partly cloudy Partly cloudy Clear Partly cloudy Clear Partly cloudy Partly cloudy Partly cloudy Cloudy Cloudy Cloudy Cloudy Cloudy Partly cloudy Overcast Overcast Overcast Overcast Overcast Overcast Overcast Overcast Cloudy Overcast Overcast Cloudy Cloudy Cloudy Cloudy Cloudy Overcast Overcast Partly cloudy Overcast Light snow Moderate snow Heavy snow Moderate snow showers Moderate snow showers Patchy heavy snow Patchy light snow
27°F
-3°C
29°F
-2°C
30°F
-1°C
30°F
-1°C
30°F
-1°C
30°F
-1°C
30°F
-1°C
28°F
-2°C
25°F
-4°C
25°F
-4°C
23°F
-5°C
23°F
-5°C
23°F
-5°C
23°F
-5°C
22°F
-5°C
22°F
-5°C
23°F
-5°C
23°F
-5°C
22°F
-6°C
22°F
-6°C
21°F
-6°C
21°F
-6°C
21°F
-6°C
23°F
-5°C
25°F
-4°C
27°F
-3°C
28°F
-2°C
29°F
-1°C
31°F
-1°C
32°F
-0°C
32°F
0°C
32°F
0°C
31°F
-1°C
30°F
-1°C
29°F
-2°C
29°F
-1°C
30°F
-1°C
31°F
-1°C
31°F
-0°C
31°F
-0°C
31°F
-1°C
31°F
-1°C
31°F
-1°C
33°F
0°C
34°F
1°C
34°F
1°C
34°F
1°C
33°F
1°C
21°F
-6°C
21°F
-6°C
21°F
-6°C
22°F
-6°C
21°F
-6°C
21°F
-6°C
22°F
-6°C
22°F
-5°C
21°F
-6°C
20°F
-6°C
19°F
-8°C
18°F
-8°C
18°F
-8°C
17°F
-8°C
17°F
-8°C
17°F
-9°C
17°F
-9°C
17°F
-9°C
17°F
-8°C
18°F
-8°C
18°F
-8°C
18°F
-8°C
18°F
-8°C
19°F
-7°C
20°F
-7°C
20°F
-6°C
21°F
-6°C
22°F
-5°C
24°F
-5°C
25°F
-4°C
26°F
-3°C
27°F
-3°C
27°F
-3°C
27°F
-3°C
27°F
-3°C
28°F
-2°C
28°F
-2°C
28°F
-2°C
29°F
-2°C
28°F
-2°C
28°F
-2°C
29°F
-2°C
29°F
-1°C
30°F
-1°C
29°F
-2°C
28°F
-2°C
26°F
-3°C
25°F
-4°C
29.94 in
1014 mb
29.94 in
1014 mb
29.94 in
1014 mb
29.94 in
1014 mb
29.94 in
1014 mb
29.94 in
1014 mb
29.94 in
1014 mb
29.94 in
1014 mb
29.97 in
1015 mb
29.97 in
1015 mb
29.97 in
1015 mb
29.97 in
1015 mb
29.97 in
1015 mb
29.97 in
1015 mb
29.97 in
1015 mb
29.97 in
1015 mb
29.94 in
1014 mb
29.97 in
1015 mb
29.94 in
1014 mb
29.94 in
1014 mb
29.94 in
1014 mb
29.94 in
1014 mb
29.94 in
1014 mb
29.94 in
1014 mb
29.94 in
1014 mb
29.91 in
1013 mb
29.91 in
1013 mb
29.88 in
1012 mb
29.88 in
1012 mb
29.85 in
1011 mb
29.85 in
1011 mb
29.85 in
1011 mb
29.85 in
1011 mb
29.85 in
1011 mb
29.85 in
1011 mb
29.85 in
1011 mb
29.85 in
1011 mb
29.83 in
1010 mb
29.83 in
1010 mb
29.83 in
1010 mb
29.83 in
1010 mb
29.85 in
1011 mb
29.85 in
1011 mb
29.88 in
1012 mb
29.88 in
1012 mb
29.94 in
1014 mb
29.97 in
1015 mb
30 in
1016 mb
77%71%70%70%69%69%72%78%82%82%82%81%81%79%79%77%76%77%81%84%86%89%89%86%81%77%74%74%75%76%78%80%86%90%91%93%92%92%90%88%91%92%94%91%83%79%73%72%
NNNWNNWNNWNNNNNNENNENNNNWNNWNWWSWSWSSWSSWSSSESSSSSSSSSSSSSSSSSSSSSSSSWSWWSWWW
8 mph
13 km/h
8 mph
13 km/h
9 mph
14 km/h
9 mph
14 km/h
9 mph
15 km/h
10 mph
15 km/h
10 mph
16 km/h
10 mph
15 km/h
8 mph
13 km/h
7 mph
11 km/h
5 mph
9 km/h
4 mph
6 km/h
3 mph
5 km/h
2 mph
4 km/h
2 mph
3 km/h
1 mph
2 km/h
2 mph
4 km/h
3 mph
5 km/h
4 mph
7 km/h
6 mph
9 km/h
6 mph
10 km/h
7 mph
12 km/h
8 mph
12 km/h
8 mph
13 km/h
9 mph
14 km/h
9 mph
15 km/h
9 mph
15 km/h
9 mph
14 km/h
9 mph
15 km/h
9 mph
15 km/h
9 mph
14 km/h
9 mph
15 km/h
10 mph
16 km/h
9 mph
14 km/h
10 mph
16 km/h
12 mph
19 km/h
12 mph
19 km/h
14 mph
22 km/h
14 mph
23 km/h
15 mph
24 km/h
14 mph
23 km/h
13 mph
21 km/h
11 mph
18 km/h
9 mph
15 km/h
8 mph
13 km/h
11 mph
17 km/h
11 mph
17 km/h
10 mph
17 km/h
0%0%0%0%0%0%0%0%0%0%0%0%0%0%0%0%0%0%0%0%0%0%0%0%0%0%0%0%0%0%0%0%0%0%0%0%0%0%0%0%0%0%0%0%0%60%81%0%
6 mi
10 km
6 mi
10 km
6 mi
10 km
6 mi
10 km
6 mi
10 km
6 mi
10 km
6 mi
10 km
6 mi
10 km
6 mi
10 km
6 mi
10 km
6 mi
10 km
6 mi
10 km
6 mi
10 km
6 mi
10 km
6 mi
10 km
6 mi
10 km
6 mi
10 km
6 mi
10 km
6 mi
10 km
6 mi
10 km
6 mi
10 km
6 mi
10 km
6 mi
10 km
6 mi
10 km
6 mi
10 km
6 mi
10 km
6 mi
10 km
6 mi
10 km
6 mi
10 km
6 mi
10 km
6 mi
10 km
6 mi
10 km
6 mi
10 km
6 mi
10 km
6 mi
10 km
6 mi
10 km
6 mi
10 km
6 mi
10 km
6 mi
10 km
6 mi
10 km
6 mi
10 km
6 mi
10 km
3 mi
5 km
1 mi
2 km
4 mi
7 km
4 mi
7 km
3 mi
5 km
6 mi
10 km

Day/Time
Weather
Condition
Temperature
Dew Point
Pressure
Humidity
Wind Direction
Wind Speed
Prob Precip %
Visibility
Prob Precip % = Probability of Precipitation.